^^
Meteo Knjazevac Station Historical Data
Daily Summary for July 16, 2021 Units:  English    Metric   Both
Daily Weekly Monthly Yearly Custom
  High: Low: Average:
Temperature: 67.7 °F 62.3 °F 65.2 °F
Dew Point: 58 °F 56 °F 57.3 °F
Humidity: 80% 70% 76%
Wind Speed: 3mph 1mph 2.4mph
Wind Gust: 8mph - -
Wind- - West
Pressure: 30.06 in 30.05 in -
Precipitation: 0.00 in    
Historical Graphs
 
 
Tabular Data for July 16, 2021
Time Temperature Dew Point Pressure Wind Wind Speed Wind Gust Humidity Rainfall Rate (Hourly) solar Conditions
00:00 67.7 °F 57.6 °F 30.06 in WSW 2 mph 3 mph 70% 0.00 in 0 W/m2
00:10 67.2 °F 57.8 °F 30.06 in WNW 3 mph 5 mph 72% 0.00 in 0 W/m2
00:20 67 °F 57.7 °F 30.06 in West 3 mph 6 mph 72% 0.00 in 0 W/m2
00:30 66.9 °F 58 °F 30.06 in West 3 mph 5 mph 73% 0.00 in 0 W/m2
00:40 66.7 °F 57.8 °F 30.06 in West 2 mph 5 mph 73% 0.00 in 0 W/m2
00:50 66.4 °F 57.5 °F 30.06 in West 2 mph 5 mph 73% 0.00 in 0 W/m2
01:00 66.4 °F 57.8 °F 30.06 in West 3 mph 5 mph 74% 0.00 in 0 W/m2
01:10 66.1 °F 57.5 °F 30.06 in WSW 2 mph 5 mph 74% 0.00 in 0 W/m2
01:20 65.5 °F 57.4 °F 30.05 in West 2 mph 4 mph 75% 0.00 in 0 W/m2
01:30 65.3 °F 57.2 °F 30.05 in West 3 mph 5 mph 75% 0.00 in 0 W/m2
01:40 65.1 °F 57.7 °F 30.05 in West 2 mph 5 mph 77% 0.00 in 0 W/m2
01:50 64.9 °F 57.6 °F 30.05 in WNW 3 mph 7 mph 77% 0.00 in 0 W/m2
02:00 64.8 °F 57.4 °F 30.05 in West 3 mph 6 mph 77% 0.00 in 0 W/m2
02:10 64.6 °F 57.2 °F 30.05 in West 3 mph 8 mph 77% 0.00 in 0 W/m2
02:20 64.2 °F 57.2 °F 30.05 in WSW 2 mph 6 mph 78% 0.00 in 0 W/m2
02:30 63.7 °F 56.7 °F 30.05 in West 2 mph 5 mph 78% 0.00 in 0 W/m2
02:40 63.3 °F 56.7 °F 30.05 in WSW 2 mph 5 mph 79% 0.00 in 0 W/m2
02:50 63 °F 56.4 °F 30.05 in West 1 mph 3 mph 79% 0.00 in 0 W/m2
03:00 62.8 °F 56.5 °F 30.05 in West 2 mph 4 mph 80% 0.00 in 0 W/m2
03:10 62.3 °F 56 °F 30.05 in West 2 mph 5 mph 80% 0.00 in 0 W/m2
Knjazevac, Serbia
Compliments of Weather Underground - 2 mb